Seretse Khama, Botswana

10:08 PM CAT on June 28, 2017 (GMT +0200)
Seretse Khama

Weather History for FBSK - May, 2013

Change the Weather History Date:

Wednesday, May 15, 2013

  Actual Average Record
Temperature  
Mean Temperature 62 °F -  
Max Temperature 77 °F 72 °F 89 °F (2015)
Min Temperature 46 °F 42 °F 35 °F (1999)
Degree Days  
Heating Degree Days 4    
Growing Degree Days 12 (Base 50)    
Moisture  
Dew Point 40 °F    
Average Humidity 48    
Maximum Humidity 100    
Minimum Humidity 24    
Precipitation  
Precipitation 0.00 in - - ()
Sea Level Pressure  
Sea Level Pressure 30.16 in    
Wind  
Wind Speed 5 mph ()    
Max Wind Speed 10 mph    
Max Gust Speed -    
Averages and records for this station are not official NWS values.
T = Trace of Precipitation, MM = Missing Value Source: Averaged Metar Reports

Daily Weather History Graph

Daily Weather History Graph

Search for Another Location

Airport or City:

Trip Planner

Search our weather history database for the weather conditions in past years. The results will help you decide how hot, cold, wet, or windy it might be!

Date:

Astronomy

May. 15, 2013 Rise Set
Actual Time 6:44 AM CAT 5:40 PM CAT
Civil Twilight 6:20 AM CAT 6:04 PM CAT
Nautical Twilight 5:53 AM CAT 6:32 PM CAT
Astronomical Twilight 5:25 AM CAT 6:59 PM CAT
Moon 10:51 AM CAT (5/15) 10:11 PM CAT (5/15)
Length of Visible Light 11h 43m
Length of Day
10h 55m
Waxing Crescent, 24% of the Moon is Illuminated
May 15
Waxing Crescent
May 18
First Quarter
May 25
Full
May 31
Last Quarter
Jun 8
New

Hourly Weather History & Observations

Time (CAT) Temp. Windchill Dew Point Humidity Pressure Visibility Wind Dir Wind Speed Gust Speed Precip Events Conditions
12:00 AM 53.6 °F - 39.2 °F 58% 30.24 in - South 3.5 mph - N/A   Clear
1:00 AM 53.6 °F - 39.2 °F 58% 30.21 in - SSE 3.5 mph - N/A   Clear
2:00 AM 51.8 °F - 39.2 °F 62% 30.21 in - SE 2.3 mph - N/A   Clear
4:00 AM 48.2 °F - 39.2 °F 71% 30.21 in - South 4.6 mph - N/A   Clear
5:00 AM 48.2 °F - 39.2 °F 71% 30.21 in - SSE 9.2 mph - N/A   Clear
6:00 AM 46.4 °F 43.5 °F 46.4 °F 100% 30.21 in - SE 5.8 mph - N/A   Clear
7:00 AM 46.4 °F 44.3 °F 39.2 °F 76% 30.21 in - SE 4.6 mph - N/A   Clear
8:00 AM 53.6 °F - 41.0 °F 62% 30.21 in - SE 3.5 mph - N/A   Clear
9:00 AM 60.8 °F - 42.8 °F 52% 30.24 in - ENE 9.2 mph - N/A   Clear
10:00 AM 64.4 °F - 42.8 °F 45% 30.24 in - NE 4.6 mph - N/A   Clear
11:00 AM 68.0 °F - 41.0 °F 37% 30.21 in - NNE 6.9 mph - N/A   Clear
12:00 PM 73.4 °F - 39.2 °F 29% 30.18 in - NE 10.4 mph - N/A   Clear
1:00 PM 75.2 °F - 39.2 °F 27% 30.15 in - NE 9.2 mph - N/A   Clear
2:00 PM 75.2 °F - 37.4 °F 25% 30.12 in - East 5.8 mph - N/A   Clear
3:00 PM 77.0 °F - 37.4 °F 24% 30.09 in - Variable 3.5 mph - N/A   Clear
4:00 PM 77.0 °F - 37.4 °F 24% 30.09 in - Variable 3.5 mph - N/A   Clear
5:00 PM 75.2 °F - 37.4 °F 25% 30.09 in - East 6.9 mph - N/A   Clear
6:00 PM 69.8 °F - 39.2 °F 33% 30.09 in - East 6.9 mph - N/A   Clear
7:00 PM 66.2 °F - 39.2 °F 37% 30.09 in - East 8.1 mph - N/A   Clear
8:00 PM 62.6 °F - 39.2 °F 42% 30.12 in - East 6.9 mph - N/A   Clear
9:00 PM 60.8 °F - 39.2 °F 45% 30.12 in - East 6.9 mph - N/A   Clear
10:00 PM 57.2 °F - 39.2 °F 51% 30.12 in - East 3.5 mph - N/A   Clear
11:00 PM 57.2 °F - 39.2 °F 51% 30.12 in - ESE 4.6 mph - N/A   Clear